Location: Franzen
(48.6167°N, 15.3833°E)
Time: 09:37:03
(UTC+00:00)

Altair - Pass Details

Date: 02 August 2021
Orbit: 1501 x 1682 km, 47.2° (Epoch: 20 September)

Event Time Altitude Azimuth Distance (km) Brightness Sun altitude
Rises 05:40:39 0° 287° (WNW) 4,663 9.5 19.0°
Reaches altitude 10° 05:43:45 10° 283° (WNW) 3,668 9.0 19.5°
Maximum altitude 05:52:36 55° 209° (SSW) 1,752 7.9 21.0°
Drops below altitude 10° 06:01:28 10° 134° (SE) 3,668 10.3 22.5°
Sets 06:04:35 0° 131° (SE) 4,663 10.8 23.0°
